TimeEST,TemperatureF,Dew PointF,Humidity,Sea Level PressureIn,VisibilityMPH,Wind Direction,Wind SpeedMPH,Gust SpeedMPH,PrecipitationIn,Events,Conditions,WindDirDegrees,DateUTC
12:15 AM,32.0,26.6,80,29.66,10.0,West,8.1,16.1,N/A,,Unknown,280,2013-03-02 05:15:00
12:35 AM,32.0,26.6,80,29.66,10.0,WNW,9.2,16.1,N/A,,Unknown,290,2013-03-02 05:35:00
12:55 AM,32.0,26.6,80,29.66,10.0,WNW,9.2,-,N/A,,Unknown,290,2013-03-02 05:55:00
1:35 AM,32.0,26.4,80,29.66,10.0,West,10.4,-,N/A,,Unknown,280,2013-03-02 06:35:00
1:55 AM,32.0,26.2,79,29.65,10.0,West,9.2,16.1,N/A,,Unknown,280,2013-03-02 06:55:00
2:15 AM,32.0,25.9,78,29.65,10.0,WNW,8.1,-,N/A,,Unknown,290,2013-03-02 07:15:00
2:35 AM,32.0,25.7,78,29.65,10.0,WNW,8.1,-,N/A,,Unknown,290,2013-03-02 07:35:00
3:15 AM,31.1,25.0,78,29.64,10.0,WNW,6.9,-,N/A,,Unknown,290,2013-03-02 08:15:00
3:35 AM,31.3,25.0,77,29.64,10.0,West,9.2,-,N/A,,Unknown,280,2013-03-02 08:35:00
3:55 AM,31.1,24.8,77,29.64,10.0,WNW,8.1,-,N/A,,Unknown,290,2013-03-02 08:55:00
4:15 AM,31.5,25.2,78,29.64,10.0,West,8.1,-,N/A,,Unknown,280,2013-03-02 09:15:00
4:35 AM,31.8,25.3,77,29.65,10.0,West,6.9,-,N/A,,Unknown,280,2013-03-02 09:35:00
5:15 AM,31.6,26.2,80,29.65,10.0,WNW,10.4,-,N/A,,Unknown,290,2013-03-02 10:15:00
5:35 AM,31.6,26.2,80,29.65,10.0,West,8.1,-,N/A,,Unknown,280,2013-03-02 10:35:00
6:15 AM,32.0,26.4,80,29.65,10.0,West,6.9,-,N/A,Snow,Light Snow,280,2013-03-02 11:15:00
6:35 AM,31.6,26.8,82,29.65,7.0,West,6.9,-,N/A,Snow,Light Snow,280,2013-03-02 11:35:00
6:55 AM,32.0,26.6,80,29.65,10.0,WNW,6.9,-,N/A,,Unknown,290,2013-03-02 11:55:00
7:35 AM,32.0,26.1,79,29.66,10.0,WNW,9.2,-,N/A,,Unknown,290,2013-03-02 12:35:00
8:15 AM,33.1,26.1,75,29.66,10.0,West,10.4,-,N/A,,Unknown,280,2013-03-02 13:15:00
8:35 AM,33.6,26.1,74,29.66,10.0,WNW,9.2,16.1,N/A,,Unknown,290,2013-03-02 13:35:00
8:55 AM,34.0,26.4,74,29.66,10.0,WNW,11.5,16.1,N/A,,Unknown,290,2013-03-02 13:55:00
9:15 AM,34.3,26.6,73,29.66,10.0,West,10.4,-,N/A,,Unknown,280,2013-03-02 14:15:00
9:35 AM,34.3,26.8,74,29.66,10.0,West,12.7,18.4,N/A,,Unknown,280,2013-03-02 14:35:00
9:55 AM,34.3,26.6,73,29.65,10.0,West,15.0,23.0,N/A,,Unknown,280,2013-03-02 14:55:00
10:15 AM,34.9,26.8,72,29.65,10.0,West,12.7,19.6,N/A,,Unknown,280,2013-03-02 15:15:00
10:35 AM,35.2,27.0,72,29.65,10.0,West,12.7,19.6,N/A,,Unknown,280,2013-03-02 15:35:00
10:55 AM,35.4,26.6,70,29.65,10.0,West,17.3,23.0,N/A,,Unknown,280,2013-03-02 15:55:00
11:15 AM,35.6,26.8,70,29.65,10.0,West,13.8,24.2,N/A,,Unknown,280,2013-03-02 16:15:00
11:35 AM,35.1,26.8,72,29.65,10.0,West,11.5,19.6,N/A,,Unknown,280,2013-03-02 16:35:00
11:55 AM,35.8,27.0,70,29.65,10.0,West,11.5,18.4,N/A,,Unknown,280,2013-03-02 16:55:00
12:15 PM,36.0,26.6,69,29.64,10.0,West,12.7,20.7,N/A,,Unknown,270,2013-03-02 17:15:00
12:35 PM,35.6,26.6,70,29.63,10.0,West,13.8,19.6,N/A,,Unknown,270,2013-03-02 17:35:00
12:55 PM,35.6,26.2,69,29.63,10.0,West,12.7,21.9,N/A,,Unknown,270,2013-03-02 17:55:00
1:15 PM,36.0,25.7,66,29.63,10.0,West,10.4,18.4,N/A,,Unknown,280,2013-03-02 18:15:00
1:35 PM,36.5,25.3,64,29.63,10.0,West,11.5,16.1,N/A,,Unknown,280,2013-03-02 18:35:00
1:55 PM,36.1,25.2,64,29.62,10.0,West,10.4,17.3,N/A,,Unknown,280,2013-03-02 18:55:00
2:15 PM,36.0,24.8,64,29.63,10.0,West,11.5,18.4,N/A,,Unknown,280,2013-03-02 19:15:00
2:35 PM,35.6,24.8,65,29.62,10.0,West,11.5,19.6,N/A,,Unknown,280,2013-03-02 19:35:00
2:55 PM,35.6,24.8,65,29.62,10.0,WNW,12.7,19.6,N/A,,Unknown,290,2013-03-02 19:55:00
3:15 PM,35.6,24.6,64,29.62,10.0,WNW,10.4,-,N/A,,Unknown,290,2013-03-02 20:15:00
3:35 PM,35.6,24.6,64,29.62,10.0,West,10.4,-,N/A,,Unknown,280,2013-03-02 20:35:00
3:55 PM,35.2,25.2,67,29.63,10.0,WNW,9.2,16.1,N/A,,Unknown,290,2013-03-02 20:55:00
4:15 PM,35.1,25.5,68,29.63,10.0,West,9.2,-,N/A,,Unknown,280,2013-03-02 21:15:00
4:35 PM,34.7,25.7,70,29.63,10.0,WNW,9.2,-,N/A,,Unknown,290,2013-03-02 21:35:00
5:15 PM,33.4,25.7,73,29.65,10.0,West,8.1,-,N/A,,Unknown,280,2013-03-02 22:15:00
5:35 PM,32.9,25.3,74,29.65,10.0,West,10.4,-,N/A,,Unknown,280,2013-03-02 22:35:00
5:55 PM,32.4,25.5,76,29.66,10.0,West,10.4,-,N/A,,Unknown,280,2013-03-02 22:55:00
6:15 PM,32.0,25.7,78,29.66,10.0,West,9.2,-,N/A,,Unknown,270,2013-03-02 23:15:00
6:35 PM,32.0,24.8,75,29.67,10.0,WNW,8.1,-,N/A,,Unknown,290,2013-03-02 23:35:00
7:15 PM,31.5,24.8,76,29.67,10.0,West,9.2,-,N/A,,Unknown,280,2013-03-03 00:15:00
7:35 PM,31.1,24.8,77,29.67,10.0,West,8.1,-,N/A,,Unknown,280,2013-03-03 00:35:00
7:55 PM,31.1,24.8,77,29.67,10.0,West,8.1,-,N/A,Snow,Light Snow,280,2013-03-03 00:55:00
8:15 PM,30.9,25.0,79,29.66,10.0,West,6.9,-,N/A,,Unknown,280,2013-03-03 01:15:00
8:35 PM,30.9,24.8,78,29.66,10.0,WNW,6.9,-,N/A,,Unknown,290,2013-03-03 01:35:00
8:55 PM,30.7,24.3,77,29.67,10.0,WNW,8.1,-,N/A,,Unknown,290,2013-03-03 01:55:00
9:15 PM,30.6,24.6,79,29.67,10.0,WNW,6.9,-,N/A,,Unknown,290,2013-03-03 02:15:00
9:35 PM,30.2,25.0,81,29.67,10.0,West,5.8,-,N/A,Snow,Light Snow,280,2013-03-03 02:35:00
9:55 PM,29.7,25.3,84,29.67,4.0,West,4.6,-,N/A,Snow,Light Snow,280,2013-03-03 02:55:00
10:15 PM,29.3,25.7,86,29.67,3.0,West,6.9,-,N/A,Snow,Light Snow,280,2013-03-03 03:15:00
10:35 PM,28.9,25.7,88,29.67,3.0,West,4.6,-,N/A,Snow,Light Snow,270,2013-03-03 03:35:00
10:55 PM,28.8,25.5,88,29.66,3.0,West,8.1,-,N/A,Snow,Light Snow,280,2013-03-03 03:55:00
11:15 PM,28.4,25.3,88,29.66,2.5,West,8.1,-,N/A,Snow,Light Snow,270,2013-03-03 04:15:00
11:35 PM,28.4,25.7,90,29.65,1.8,West,8.1,-,N/A,Snow,Light Snow,280,2013-03-03 04:35:00
11:55 PM,28.2,25.7,90,29.65,1.5,West,5.8,-,N/A,Snow,Light Snow,280,2013-03-03 04:55:00